TimePST,TemperatureF,Dew PointF,Humidity,Sea Level PressureIn,VisibilityMPH,Wind Direction,Wind SpeedMPH,Gust SpeedMPH,PrecipitationIn,Events,Conditions,WindDirDegrees,DateUTC
12:56 AM,63.0,36.0,37,29.86,10.0,WSW,9.2,-,N/A,,Clear,240,2013-03-06 08:56:00
1:56 AM,61.0,37.0,41,29.86,10.0,WSW,5.8,-,N/A,,Clear,250,2013-03-06 09:56:00
2:56 AM,61.0,37.9,42,29.84,10.0,SSW,5.8,-,N/A,,Clear,210,2013-03-06 10:56:00
3:56 AM,61.0,37.0,41,29.86,10.0,Calm,Calm,-,N/A,,Clear,0,2013-03-06 11:56:00
4:56 AM,57.9,37.0,46,29.88,10.0,Calm,Calm,-,N/A,,Clear,0,2013-03-06 12:56:00
6:56 AM,60.1,37.0,42,29.92,10.0,NNW,5.8,-,N/A,,Clear,340,2013-03-06 14:56:00
7:56 AM,64.0,37.0,37,29.94,10.0,SW,8.1,-,N/A,,Clear,230,2013-03-06 15:56:00
8:56 AM,66.9,36.0,32,29.95,10.0,SW,5.8,-,N/A,,Clear,220,2013-03-06 16:56:00
9:56 AM,71.1,32.0,24,29.93,10.0,SW,16.1,-,N/A,,Clear,220,2013-03-06 17:56:00
10:56 AM,73.0,30.9,21,29.91,10.0,SSW,10.4,-,N/A,,Clear,210,2013-03-06 18:56:00
11:56 AM,75.0,28.0,18,29.88,10.0,SW,12.7,19.6,N/A,,Clear,220,2013-03-06 19:56:00
12:56 PM,78.1,27.0,15,29.84,10.0,South,16.1,20.7,N/A,,Clear,190,2013-03-06 20:56:00
1:56 PM,79.0,26.1,14,29.81,10.0,SSW,13.8,21.9,N/A,,Clear,210,2013-03-06 21:56:00
2:56 PM,79.0,26.1,14,29.79,10.0,SSW,16.1,21.9,N/A,,Clear,200,2013-03-06 22:56:00
3:56 PM,78.1,24.1,14,29.78,10.0,SSW,11.5,20.7,N/A,,Clear,210,2013-03-06 23:56:00
4:56 PM,75.9,17.1,11,29.78,10.0,WSW,16.1,-,N/A,,Clear,250,2013-03-07 00:56:00
5:56 PM,72.0,23.0,16,29.78,10.0,West,8.1,-,N/A,,Clear,260,2013-03-07 01:56:00
6:56 PM,69.1,24.1,18,29.79,10.0,SSW,6.9,-,N/A,,Clear,210,2013-03-07 02:56:00
7:56 PM,66.0,24.1,20,29.79,10.0,WSW,8.1,-,N/A,,Clear,250,2013-03-07 03:56:00
8:56 PM,66.9,32.0,27,29.79,10.0,West,12.7,-,N/A,,Clear,280,2013-03-07 04:56:00
9:56 PM,64.9,33.1,31,29.80,10.0,NE,4.6,-,N/A,,Clear,40,2013-03-07 05:56:00
10:56 PM,62.1,32.0,32,29.81,10.0,South,6.9,-,N/A,,Clear,190,2013-03-07 06:56:00
11:56 PM,57.9,33.1,39,29.81,10.0,Calm,Calm,-,N/A,,Clear,0,2013-03-07 07:56:00